Location: Newark
(7.0858°N, 171.3717°E)
Time: 13:46:42
(UTC+00:00)

Vanguard 1 Rocket - Pass Details

Date: 27 November 2020
Orbit: 655 x 4222 km, 34.3° (Epoch: 23 January)

Event Time Altitude Azimuth Distance (km) Brightness Sun altitude
Rises 08:59:50 0° 211° (SSW) 5,826 12.1 -39.2°
Reaches altitude 10° 09:03:32 10° 202° (SSW) 5,251 11.6 -40.0°
Maximum altitude 09:19:30 40° 137° (SE) 4,645 10.6 -43.7°
Enters shadow 09:21:24 40° 128° (SE) 4,776 10.6 -44.1°
